Regional Weather Roundup
Issued by NWS

Home | Current Version | Previous Version | Text Only | Print | Product List | Glossary On
Versions: 1 2 3 4 5 6 7 8 9 10 11 12 13 14 15 16 17 18 19 20 21 22 23 24 25 26 27
000
ASUS45 KBOU 231907
RWRCO

WEATHER ROUNDUP FOR COLORADO
NATIONAL WEATHER SERVICE DENVER/BOULDER CO
1200 PM MST THU FEB 23 2017

NOTE: "FAIR" INDICATES FEW OR NO CLOUDS BELOW 12000 FEET WITH NO
SIGNIFICANT WEATHER AND/OR OBSTRUCTIONS TO VISIBILITY.

COZ001>005-013-030-031-232000-
...NORTHWEST COLORADO...

CITY           SKY/WX    TMP DP  RH WIND       PRES   REMARKS
CRAIG          LGT SNOW  25  15  66 W23G30    29.63R WCI  10
HAYDEN         PTSUNNY   25  16  68 W16       29.60R WCI  12
MEEKER         LGT SNOW  26  16  65 W8        29.63R WCI  18
MOUNT WERNER   NOT AVBL
STEAMBOAT SPGS CLOUDY    24  17  75 W12       29.60R WCI  13
WALDEN         NOT AVBL
$$

COZ006>008-011-232000-
...WEST CENTRAL VALLEYS...

CITY           SKY/WX    TMP DP  RH WIND       PRES   REMARKS
GRAND JUNCTION FAIR      39   5  24 W23G36    29.69S
MONTROSE       CLOUDY    36   4  26 NW14      29.70R
EAGLE          CLOUDY    30  19  64 W23G30    29.63R WCI  17
RIFLE          FAIR      35  14  42 W22G29    29.64S WCI  23
DELTA          FAIR      42  -6  13 W25G32    29.68F
NUCLA          CLOUDY    34   3  27 NW17G24   29.73S WCI  23
$$

COZ017>023-064>068-232000-
...SOUTHWEST COLORADO...

CITY           SKY/WX    TMP DP  RH WIND       PRES   REMARKS
DURANGO        FAIR      34   5  29 W28G36    29.69F WCI  21
CORTEZ         PTSUNNY   38   6  26 SW17G32   29.73S
PAGOSA SPRINGS CLOUDY    27  15  61 W17G31    29.68S HAZE    WCI  14
TELLURIDE      LGT SNOW  16  11  80 NW12G21   29.66S VSB 3/4 WCI   3
WOLF CREEK PAS CLOUDY     5   3  92 SW31G51   29.55R FOG     WCI -19
$$

COZ009-010-012-014-032>034-037-058>063-232000-
...CENTRAL COLORADO...

CITY           SKY/WX    TMP DP  RH WIND       PRES   REMARKS
ASPEN          MIX PCPN  22  15  75 N15G28    29.56R WCI   9
BUENA VISTA    PTSUNNY   31  12  44 SW21G30   29.52R WCI  19
COPPER MTN     NOT AVBL
BERTHOUD PASS  SNOW       5  -4  66 MISG      29.40F VSB 1/2
COTTONWOOD PAS LGT SNOW  23   5  46 SW16G41   29.49S WCI  10
GUNNISON       FAIR      25   9  50 W14       29.62R WCI  13
KREMMLING      LGT SNOW  32  23  69 N8        29.54R WCI  25
LEADVILLE      FLURRIES  18   3  52 W10       29.47S WCI   6
MONARCH PASS   CLOUDY     7   3  85 W32G55    29.57R WCI -17
SALIDA         FAIR      34   5  29 W30G40    29.62R WCI  20
SUNLIGHT       NOT AVBL
WILKERSON PASS CLOUDY    21   3  45 SW10G28   29.46S WCI  10
$$

COZ069>075-232000-
...SAN LUIS VALLEY/SANGRE DE CRISTO MOUNTAINS...

CITY           SKY/WX    TMP DP  RH WIND       PRES   REMARKS
ALAMOSA        FAIR      36  12  37 SW28G38   29.57F
LA VETA PASS   CLOUDY    23  10  58 NE30G53   29.47F WCI   5
SAGUACHE       CLOUDY    32  12  43 NW29G36   29.57R WCI  18
$$

COZ035-036-038>040-232000-
...NORTHERN COLORADO FRONT RANGE...

CITY           SKY/WX    TMP DP  RH WIND       PRES   REMARKS
DENVER INTL AP LGT SNOW  30  26  85 NE12      29.53S VSB 1   WCI  20
DMNS CITY PARK   N/A     30  29  95 N8        29.53S WCI  23
AURORA         LGT SNOW  29  28  97 N6        29.53S FOG     WCI  23
FRONT RANGE AP LGT SNOW  32  30  93 NE14      29.54S VSB 1   WCI  22
ERIE MUNI ARPT LGT SNOW  32  29  87 NE9       29.56S WCI  24
BOULDER MUN AP MIX PCPN  30  30 100 NE9       29.55S WCI  22
CENTENNIAL     LGT SNOW  29  26  89 N14       29.51S FOG     WCI  18
BROOMFIELD     NOT AVBL
FORT COLLINS   FLURRIES  32  28  85 E13       29.58S WCI  22
LONGMONT       LGT SNOW  35  29  78 E7        29.58F WCI  29
$$

COZ041-046-047-076>085-087-088-232000-
...PIKES PEAK/PALMER DIVIDE AND SOUTHERN FOOTHILLS...

CITY           SKY/WX    TMP DP  RH WIND       PRES   REMARKS
COLO. SPRINGS  FLURRIES  36  27  69 N13       29.48F
A. F. ACADEMY  MIX PCPN  31  22  67 N13G21    29.47F WCI  21
SCHRIEVER AFB  SNOWSHWR  30  27  86 NW12      29.49  WCI  21
ELLICOTT       LGT SNOW N/A N/A N/A N13       29.48R
FALCON         CLOUDY    33  23  67 N9        29.48F WCI  25
FORT CARSON    LGT SNOW  34  32  93 N13       29.47F FOG     WCI  25
LIMON          LGT SNOW  31  31 100 NE6       29.49R FOG     WCI  25
MONUMENT HILL  CLOUDY    27  23  86 N8        29.49S FOG     WCI  18
TRINIDAD       FAIR      52   5  15 W39G49    29.46F
$$

COZ042>045-048>051-090-091-232000-
...NORTHEAST COLORADO...

CITY           SKY/WX    TMP DP  RH WIND       PRES   REMARKS
GREELEY ARPT   LGT SNOW  31  29  92 E10       29.59S FOG     WCI  22
AKRON          CLOUDY    28  26  92 NE18G26   29.53S FOG     WCI  15
BURLINGTON     CLOUDY    33  32  96 NE18      29.50S FOG     WCI  22
WRAY           NOT AVBL
STERLING       CLOUDY    30  28  93 NE8G17    29.57F FOG     WCI  23
HOLYOKE        CLOUDY    32  30  93 NE14      29.60S FOG     WCI  22
FORT MORGAN    LGT SNOW  29  28  94 NE18      29.55F WCI  17
$$

COZ086-089-092>099-232000-
...SOUTHEAST COLORADO...

CITY           SKY/WX    TMP DP  RH WIND       PRES   REMARKS
PUEBLO         PTSUNNY   46  26  45 NW14      29.48R
LA JUNTA       FAIR      56  23  27 W13G20    29.43F
LAMAR          FAIR      56  30  37 E8        29.38F
SPRINGFIELD      N/A     67  12  12 W24G40    29.36F
$$




USA.gov is the U.S. government's official web portal to all federal, state and local government web resources and services.